Home > Weather > Conakry > Past weeks

Flag for Guinea Past Weather in Conakry, Guinea — Yesterday and Last 2 Weeks

Now
88 °F

Scattered clouds.


Feels Like: 98 °F
Forecast: N/A
Wind: 7 mph from West

Location: Conakry / Gbessia

Current Time: May 28, 2016 at 6:10:47 PM

Latest Report: May 28, 2016 at 5:00 PM


Visibility: N/A

Pressure: 29.92 "Hg

Humidity: 66%

Dew Point: 75 °F

Location of ConakryLocation

Weather Data Notice: We have recorded very few readings for this month, some days may be missing.

Past Weather in Conakry — Graph

°F

Conakry Temperature Yesterday

Maximum temperature yesterday: 88 °F (at 1:00 PM)
Minimum temperature yesterday: 73 °F (at 5:00 PM)
Average temperature yesterday: 79 °F

High & Low Weather Summary for the Past Weeks

 TemperatureHumidityPressure
High88 °F (May 27, 1:00 PM)100% (May 27, 5:00 PM)30.04 "Hg (May 27, 5:00 PM)
Low73 °F (May 27, 5:00 PM)62% (May 27, 1:00 PM)29.86 "Hg (May 20, 4:00 PM)
Average80 °F85%29.98 "Hg
* Reported May 20 4:00 PM — May 28 4:00 PM, Conakry, Weather by CustomWeather, © 2016

Note: Actual official high and low records may vary slightly from our data, if they occured in-between our weather recording intervals... More about our weather records

Advertising

Conakry Weather History for the Previous 24 Hours

Scroll right to see more
 ConditionsComfort  
Time TempWeatherWind HumidityBarometerVisibility
4:00 PM
Sat, May 28
88 °FPartly sunny.12 mph66%29.95 "HgN/A
3:00 PM88 °FPartly sunny.9 mph66%29.95 "HgN/A
2:00 PM88 °FPartly sunny.5 mph66%29.98 "HgN/A
1:00 PM86 °FPartly sunny.5 mph70%30.01 "HgN/A
12:00 PM84 °FPartly sunny.9 mph74%30.01 "HgN/A
11:00 AM82 °FPartly sunny.7 mph79%30.01 "HgN/A
10:00 AM84 °FPartly sunny.5 mph74%30.01 "HgN/A
9:00 AM81 °FPartly sunny.No wind84%30.01 "HgN/A
8:00 AM79 °FPartly sunny.2 mph84%30.01 "HgN/A
7:00 AM77 °FPartly sunny.No wind89%30.01 "HgN/A
6:00 AM77 °FPartly cloudy.7 mph94%29.98 "HgN/A
5:00 AM77 °FPartly cloudy.5 mph94%29.98 "HgN/A
4:00 AM77 °FPartly cloudy.7 mph94%29.98 "HgN/A
3:00 AM77 °FPartly cloudy.7 mph94%29.98 "HgN/A
2:00 AM77 °FPassing clouds.5 mph94%30.01 "HgN/A
1:00 AM75 °FPartly cloudy.5 mph100%30.01 "HgN/A
12:00 AM75 °FPartly cloudy.5 mph100%30.04 "HgN/A
11:00 PM
Fri, May 27
75 °FPartly cloudy.5 mph100%30.04 "HgN/A
10:00 PM75 °FLight rain. Partly cloudy.5 mph100%30.01 "Hg5 mi
9:00 PM75 °FLight rain. Passing clouds.7 mph94%29.98 "Hg5 mi
8:00 PM75 °FThunderstorms. Passing clouds.7 mph94%29.95 "Hg5 mi
7:00 PM75 °FThunderstorms. Partly sunny.2 mph100%29.95 "Hg5 mi
6:00 PM75 °FThunderstorms. Partly sunny.No wind100%29.95 "Hg5 mi
Weather by CustomWeather, © 2016

See weather overviewHow to use our weather pages